カタログに戻る

GEESAT 6-10

運用中科学LEO
NORAD 65722·PAYLOAD·🇨🇳 China

打ち上げ Sep 24, 2025 から Yellow Sea Launch Area

Loading…

次のパス (今後24時間)

TLE

最新Source: Space-Track

元期: Sep 13, 2026, 17:00 UTC

1 65722U 25214L   26256.70862153  .00001014  00000-0  14904-3 0  9996
2 65722  49.9894 258.5248 0011568 216.9291 143.0852 14.83569304 52645

AllMySatでGEESAT 6-10をリアルタイム追跡

Download on the App Store